Location: Cisewo
(53.3833°N, 14.9000°E)
Time: 11:03:26
(UTC+00:00)

USA 290 - Pass Details

Date: 18 April 2021
Orbit: 400 x 415 km, 73.6° (Epoch: 12 May)

Event Time Altitude Azimuth Distance (km) Brightness Sun altitude
Rises 23:10:35 0° 337° (NNW) 2,373 7.1 -25.4°
Reaches altitude 10° 23:12:43 10° 344° (NNW) 1,504 6.0 -25.4°
Enters shadow 23:14:46 31° 8° (N) 767 4.1 -25.4°
